Location: Guayaquil
(2.1667°S, 79.9000°W)
Time: 09:43:31
(UTC-05:00)

Hubble Space Telescope - Visible Passes

Search period start: 12 December 2018 00:00
Search period end: 22 December 2018 00:00
Orbit: 537 x 540 km, 28.5° (Epoch: 11 December)

Date Brightness Start Highest point End Pass type
(mag) Time Alt. Az. Time Alt. Az. Time Alt. Az.
12 Dec 1.6 18:41:44 10° SW 18:45:38 40° SSE 18:49:31 10° E visible
12 Dec 2.9 20:23:09 10° W 20:25:10 22° WNW 20:25:10 22° WNW visible
13 Dec 2.8 20:13:10 10° W 20:15:27 20° NW 20:15:27 20° NW visible
14 Dec 3.0 20:03:26 10° WNW 20:05:46 16° NNW 20:05:46 16° NNW visible
15 Dec 3.3 19:54:14 10° NW 19:55:36 11° NNW 19:56:05 11° NNW visible
16 Dec 3.1 04:28:25 13° NNE 04:28:32 13° NNE 04:30:36 10° ENE visible
17 Dec 2.9 04:18:44 18° NE 04:18:44 18° NE 04:21:03 10° ENE visible
18 Dec 2.8 04:09:02 21° ENE 04:09:02 21° ENE 04:11:11 10° E visible
18 Dec 1.4 05:44:53 10° WNW 05:48:53 48° SSW 05:52:54 10° SE visible
19 Dec 3.0 03:59:19 22° E 03:59:19 22° E 04:01:08 10° E visible
19 Dec 1.9 05:34:42 10° W 05:38:28 34° SSW 05:42:15 10° SE visible
20 Dec 3.3 03:49:34 19° E 03:49:34 19° E 03:50:55 10° ESE visible
20 Dec 2.4 05:24:55 11° W 05:28:04 24° SSW 05:31:30 10° SSE visible
21 Dec 3.7 03:39:47 15° ESE 03:39:47 15° ESE 03:40:36 10° ESE visible
21 Dec 2.8 05:15:07 11° WSW 05:17:41 18° SSW 05:20:36 10° SSE visible
